Vertical_Velocity
1 -0 -1 -1 -0 0 0 -0 0 1 1 1 -0 -1 -1 1 1 0 -0 0 -1 -1 0 3 5 7 7 4 1 1 2 4 2 -3 -9 -10 -6 -5 -6 -8 -7 -5 -3 -2 -3 -3 -1 1 1 2 4 5 8 8 7 3 1 0 0 -0 -2 -3 -3 -2 -2 -3 -3 -2 1
-0 -2 -2 -1 0 2 3 3 1 0 0 0 0 -0 -0 1 2 2 1 -0 -1 1 4 7 7 7 6 2 1 2 3 3 4 -1 -9 -16 -13 -12 -13 -12 -6 -2 1 3 2 1 0 0 0 1 1 2 5 6 3 -3 -4 -2 0 0 -1 -2 -3 -3 -3 -4 -5 -4 -2
1 0 -0 -1 -0 0 1 0 -1 -2 -2 -1 0 1 1 2 3 4 2 -0 1 4 7 7 6 5 4 2 3 3 4 3 4 2 -2 -11 -16 -16 -12 -4 -0 1 3 4 4 4 3 2 0 -1 -2 -3 -0 1 -1 -5 -3 1 3 2 1 -0 -2 -3 -3 -4 -5 -6 -4
3 1 -0 -2 -3 -3 -2 -2 -1 -1 -0 1 3 3 3 3 5 6 5 3 3 4 4 4 4 3 3 3 4 4 4 4 3 3 2 -1 -5 -6 -3 1 2 2 3 5 5 5 4 4 2 -2 -5 -7 -4 -3 -4 -6 -1 3 5 4 3 1 -0 -2 -2 -2 -3 -5 -5
2 1 -1 -3 -3 -3 -2 0 1 2 3 6 6 5 4 4 5 6 6 4 2 0 0 3 3 2 2 3 3 3 4 4 3 2 2 3 3 3 3 1 -0 -0 1 4 4 4 4 4 2 0 -1 -3 -3 -6 -8 -7 -2 2 3 3 2 2 1 0 0 0 -1 -4 -6
2 1 1 -0 -1 -0 1 2 4 5 7 9 8 5 4 4 5 4 3 1 -0 0 2 4 2 1 1 2 2 3 4 4 2 1 1 2 3 4 3 1 -1 -1 0 2 3 4 4 6 5 4 4 3 1 -2 -3 -0 1 2 2 2 0 1 3 3 1 1 2 0 -4
4 3 3 2 2 2 3 3 6 7 8 7 5 4 3 4 4 3 2 1 2 3 3 1 0 0 1 2 2 3 3 2 1 1 1 1 2 2 1 -1 -2 -2 -0 2 3 4 5 6 6 6 5 4 2 0 0 3 4 5 5 4 3 3 4 3 1 0 1 3 2
5 4 3 3 3 4 4 5 6 5 4 2 2 2 3 4 3 3 3 3 4 3 2 -0 -0 1 2 3 3 3 2 2 2 1 1 2 1 0 -1 -2 -3 -2 -0 2 4 5 5 5 5 4 2 2 1 0 1 3 4 4 4 4 4 4 4 3 -0 -2 -2 0 3
3 3 3 4 4 4 4 5 4 2 1 -0 0 2 3 3 2 2 2 2 3 2 2 0 1 2 3 3 3 2 2 2 2 1 1 2 1 0 -1 -2 -1 -0 1 3 5 5 4 3 2 1 0 0 2 3 4 5 4 4 4 4 4 3 3 2 -0 -2 -3 -2 -0
1 3 4 4 4 4 4 3 2 1 -0 -0 0 1 2 2 2 2 2 2 3 2 1 -0 1 2 3 2 1 1 1 2 2 2 2 2 2 0 -0 -0 1 2 3 4 5 4 2 1 0 -0 0 1 4 5 5 5 5 4 4 4 3 2 1 0 -0 -1 -2 -3 -1
0 2 4 4 4 4 3 2 1 1 0 -0 -0 0 0 1 1 1 2 2 2 1 -1 -0 2 2 2 1 1 1 2 3 2 2 2 2 2 2 2 2 3 4 5 6 5 4 3 2 2 2 3 4 6 6 6 4 5 5 5 4 3 1 0 -1 -1 -1 -2 -2 -2
0 1 2 3 3 3 2 2 1 1 1 0 0 0 0 1 1 1 1 2 1 0 -0 1 2 2 1 0 1 2 2 2 1 2 2 3 2 3 3 4 5 6 6 6 5 5 4 3 3 4 5 6 7 6 6 4 5 5 5 4 3 2 0 -1 -1 -2 -1 -1 -1
0 1 1 2 2 2 2 2 2 2 2 2 2 2 2 2 1 1 1 2 1 0 1 2 2 2 1 0 1 1 1 1 1 2 2 2 2 2 3 4 5 5 5 5 4 4 4 3 4 4 5 6 6 6 6 5 5 4 4 2 2 1 1 -0 -0 -1 -1 -0 -0
2 2 2 2 3 3 2 2 2 2 2 3 4 4 4 3 2 1 1 2 1 1 1 2 2 1 0 0 1 1 1 1 1 2 2 2 2 2 2 3 4 4 4 3 3 3 3 3 4 5 5 5 5 6 6 6 6 5 3 2 2 2 2 2 1 -0 -1 -1 -0
4 4 4 5 5 5 4 3 2 2 3 4 4 5 5 5 3 2 2 3 2 1 1 1 1 0 0 1 1 1 1 2 2 2 2 2 2 2 3 3 4 3 2 2 2 2 3 4 4 5 4 4 4 5 5 5 5 4 4 4 4 3 2 1 -0 -1 -1 -0 -0
4 5 6 7 7 7 6 5 4 3 3 4 4 5 6 6 4 3 3 3 3 1 1 1 0 0 0 1 1 2 2 2 2 3 3 2 2 3 3 4 3 2 1 1 1 2 4 5 5 4 4 4 4 4 4 4 4 4 5 5 4 2 0 -1 -1 -0 0 1 0
1 3 4 6 7 7 7 6 5 5 4 4 4 5 5 6 5 4 4 4 2 1 1 1 1 1 1 1 2 2 2 3 3 3 4 3 3 3 2 2 2 1 1 1 1 3 4 5 4 4 4 4 4 4 5 5 4 4 3 2 1 -0 -1 -0 0 1 1 1 1
-3 -2 -0 2 3 4 4 5 5 5 5 4 4 4 4 5 5 5 4 3 2 1 1 1 1 2 2 2 2 3 4 4 4 4 4 3 2 2 2 2 2 2 1 1 2 4 5 5 4 4 4 4 5 5 5 4 3 2 0 -0 -0 0 1 2 2 2 2 1 1
-7 -6 -4 -1 -0 1 2 3 3 4 3 3 3 3 4 5 6 6 4 3 2 2 2 2 2 3 3 3 4 4 4 4 4 3 3 2 2 2 3 3 2 1 1 2 3 5 6 5 4 4 4 4 5 5 4 2 1 0 0 0 1 2 3 3 3 2 2 0 -1
-5 -5 -4 -2 -0 0 1 1 1 1 2 2 3 3 4 6 6 5 4 2 2 2 2 2 2 3 3 4 4 4 4 4 3 3 2 2 3 3 2 1 -0 -0 1 3 4 5 5 5 5 5 5 5 4 3 2 1 0 1 1 2 2 3 3 3 3 2 1 -0 -2
-0 -1 -2 -3 -1 0 0 0 -0 0 1 2 3 4 5 6 6 4 3 2 1 1 2 2 2 3 3 3 4 4 4 3 3 2 2 3 4 2 -0 -1 -0 1 2 4 4 5 5 5 5 5 5 4 3 2 1 0 1 1 2 2 2 2 2 1 2 2 1 -0 -1
2 1 -1 -3 -2 -1 0 1 1 1 2 3 3 4 6 6 4 3 2 1 1 2 2 2 2 2 3 3 3 4 4 3 3 3 3 3 3 1 -1 -0 1 2 3 4 5 5 5 5 4 4 3 2 1 0 1 1 2 2 2 1 1 0 0 0 1 2 2 1 1
3 1 -2 -3 -2 -0 1 0 0 1 2 3 5 6 6 4 3 2 1 1 1 2 2 2 1 2 2 3 3 3 3 3 3 3 3 3 2 1 0 2 3 4 4 5 4 4 4 4 3 2 1 0 -0 0 1 2 2 2 1 0 -0 -0 -0 1 2 2 3 2 2
3 0 -3 -5 -5 -6 -6 -5 -2 0 3 4 6 6 4 2 0 0 1 1 1 1 1 1 1 2 2 2 2 3 3 3 3 3 3 3 2 2 2 3 4 5 5 4 4 3 2 2 1 1 0 -0 0 1 2 2 2 2 1 0 -0 0 1 2 3 3 2 1 1
3 1 -2 -5 -8 -9 -8 -4 -0 3 5 6 5 4 2 0 -0 -0 0 0 0 1 1 1 2 2 2 2 2 2 3 3 3 3 3 3 2 3 3 4 4 4 4 3 3 2 2 2 1 0 -0 0 0 1 1 2 2 2 2 2 2 2 2 2 2 2 1 1 0
1 -2 -4 -7 -7 -5 -2 2 4 5 4 3 2 1 -0 -1 -1 -1 -0 -0 0 0 1 1 2 2 2 2 2 2 2 2 2 2 2 2 3 3 4 4 4 4 3 2 2 1 1 1 1 1 0 -0 -0 0 0 1 2 3 3 2 2 1 1 1 1 1 1 1 1
-0 -4 -7 -10 -9 -7 -4 -1 0 0 -0 -0 -0 -0 -1 -1 -1 -1 -0 -0 0 1 1 1 2 2 2 3 2 2 2 2 2 2 2 3 3 4 4 4 3 2 2 1 1 1 1 1 1 1 1 0 0 1 2 3 3 3 2 1 1 0 1 1 1 1 1 0 0
-1 -6 -12 -16 -16 -13 -10 -6 -4 -3 -3 -2 -1 -1 -0 -0 -0 -0 0 1 1 1 1 1 1 2 2 3 2 2 2 2 2 3 3 3 3 3 3 3 2 2 2 1 1 1 1 0 1 1 1 1 2 3 4 4 3 2 1 0 0 0 1 1 0 -0 -0 -0 -0
-6 -12 -16 -17 -13 -9 -5 -3 -3 -3 -3 -3 -1 -0 0 1 0 1 1 1 1 1 1 1 1 1 2 2 2 2 2 3 3 3 3 2 2 3 3 2 2 2 2 2 1 1 0 -0 0 1 1 2 3 3 3 2 1 1 1 1 1 1 0 -0 -0 -0 -0 -0 -0
-7 -10 -10 -6 -3 -1 -1 -1 -2 -3 -3 -2 -0 1 1 1 1 1 1 1 1 1 1 1 1 1 1 2 2 3 3 3 3 2 2 1 2 2 3 3 2 2 2 2 1 0 -0 -0 0 2 3 3 3 2 2 1 1 1 1 1 1 0 0 -0 -0 -0 0 1 1
-2 -2 -1 0 0 -0 -1 -2 -2 -2 -2 -1 -1 -0 -0 -1 -0 -0 0 1 1 1 1 1 1 2 2 3 3 3 3 2 2 2 2 2 2 2 3 3 2 2 1 0 -0 -0 0 1 2 3 3 3 2 2 2 2 2 2 1 1 1 0 0 0 1 1 1 1 0
-0 -0 -0 -0 -0 -1 -2 -3 -3 -3 -3 -3 -3 -2 -2 -1 -0 -0 0 1 1 1 1 2 2 3 3 2 2 2 2 2 1 2 2 2 2 2 2 2 2 1 0 -1 -0 1 2 3 3 3 2 2 2 2 2 2 2 1 1 1 1 1 1 1 1 1 1 -0 -2
-2 -2 -2 -2 -2 -3 -4 -4 -4 -4 -3 -2 -1 -0 0 1 1 1 1 2 2 3 3 3 3 3 2 1 1 1 1 2 2 2 3 3 2 2 1 1 1 0 -0 -0 1 3 3 3 2 2 1 1 2 2 2 1 1 1 1 1 1 1 1 1 1 -0 -1 -2 -3
-2 -2 -2 -3 -3 -3 -3 -3 -2 -1 0 2 2 2 2 2 2 2 2 2 3 3 3 3 3 2 2 2 2 2 2 2 2 2 2 3 2 1 0 -0 0 0 1 2 3 4 3 1 1 1 1 1 2 2 1 1 1 1 1 1 1 1 1 -0 -1 -2 -2 -2 -2
-1 -1 -2 -2 -3 -2 -1 -0 0 1 2 2 2 2 2 2 2 2 2 2 3 3 2 2 2 1 2 2 2 2 2 2 2 2 2 1 1 1 0 -0 0 2 3 4 3 2 1 0 0 1 1 2 2 2 1 1 1 1 1 1 0 -0 -1 -2 -2 -2 -2 -1 -1
-1 -0 -0 -1 -1 -0 -0 0 1 1 1 1 2 2 2 2 2 2 2 2 2 1 1 0 0 0 1 1 2 3 2 1 1 1 1 1 1 0 0 0 2 3 4 3 2 1 0 0 1 1 2 2 2 1 1 1 1 1 0 -0 -1 -2 -2 -2 -1 -1 -1 -1 -1
1 1 0 0 0 1 1 1 1 1 2 2 2 1 1 1 2 2 1 1 0 0 -0 -0 -0 0 1 1 1 2 2 2 1 0 1 1 1 1 0 1 2 2 2 1 1 0 1 1 2 2 2 2 2 1 1 1 0 -0 -1 -2 -2 -2 -1 -1 -1 -1 -1 -1 -0
2 1 1 1 2 2 1 1 2 2 2 2 2 1 1 1 1 1 0 -0 -0 -0 -0 -0 0 1 1 1 1 1 2 2 1 1 0 1 2 2 1 1 1 1 1 1 1 1 1 2 2 2 2 2 1 1 0 -0 -1 -2 -2 -2 -1 -1 -1 -1 -1 -1 -0 -0 -0
1 1 1 1 2 2 2 2 2 2 2 1 1 1 1 1 1 1 0 0 1 1 1 0 1 1 1 1 0 1 1 2 3 2 2 2 2 3 2 1 0 -0 0 0 1 1 1 2 2 2 1 1 0 -0 -1 -2 -2 -2 -1 -1 -1 -1 -1 -1 -1 -1 -0 -0 -1
2 1 1 1 1 1 2 2 2 2 2 2 1 1 1 1 1 1 1 1 3 3 3 2 1 1 2 2 1 1 1 2 4 4 4 3 3 3 3 1 0 0 0 1 1 1 2 2 1 1 0 -0 -1 -2 -2 -2 -1 -1 -1 -1 -1 -1 -0 -0 -1 -1 -0 0 0
2 1 0 0 0 0 1 2 2 2 2 2 2 1 1 1 1 1 1 2 3 4 3 2 2 2 2 3 2 2 2 3 4 5 5 4 4 3 3 2 2 1 2 2 2 2 2 1 0 -0 -1 -2 -2 -1 -1 -1 -1 -1 -1 -1 -0 -0 -0 -0 -0 -0 -0 1 1
Height
1466 1467 1467 1468 1469 1469 1469 1470 1470 1471 1471 1472 1472 1472 1473 1473 1474 1474 1475 1475 1476 1477 1477 1478 1480 1481 1482 1483 1483 1483 1484 1485 1485 1485 1486 1487 1489 1490 1491 1492 1492 1493 1494 1494 1496 1497 1499 1500 1501 1502 1503 1504 1505 1506 1506 1507 1508 1509 1509 1509 1510 1510 1511 1512 1512 1513 1514 1516 1517
1465 1465 1466 1466 1467 1467 1467 1468 1468 1468 1469 1469 1470 1470 1471 1471 1471 1472 1472 1473 1473 1474 1475 1476 1477 1478 1479 1480 1481 1482 1482 1482 1483 1483 1484 1485 1487 1488 1490 1490 1490 1491 1491 1492 1493 1494 1496 1498 1499 1500 1502 1503 1504 1505 1505 1506 1507 1508 1508 1508 1508 1508 1509 1509 1510 1510 1511 1512 1514
1463 1463 1463 1464 1464 1465 1465 1466 1466 1466 1467 1467 1467 1468 1468 1468 1469 1470 1470 1470 1471 1472 1473 1474 1475 1477 1477 1478 1479 1480 1480 1480 1481 1481 1482 1483 1485 1487 1487 1488 1488 1488 1489 1490 1492 1493 1494 1496 1497 1499 1500 1502 1503 1504 1504 1505 1506 1506 1506 1506 1506 1506 1506 1506 1507 1507 1508 1509 1511
1461 1461 1462 1462 1462 1463 1463 1463 1464 1464 1464 1465 1465 1465 1466 1466 1467 1467 1468 1468 1469 1470 1471 1472 1473 1474 1475 1476 1477 1478 1478 1478 1479 1480 1480 1481 1482 1484 1485 1485 1486 1487 1487 1489 1490 1491 1492 1494 1496 1497 1499 1500 1501 1502 1502 1503 1504 1504 1504 1503 1503 1502 1503 1504 1504 1505 1506 1507 1509
1459 1459 1459 1460 1460 1461 1461 1462 1462 1462 1463 1463 1463 1463 1464 1464 1465 1466 1466 1467 1467 1468 1469 1470 1471 1472 1473 1474 1475 1476 1476 1477 1478 1478 1479 1479 1480 1482 1483 1484 1485 1485 1486 1487 1488 1489 1491 1492 1494 1495 1496 1497 1498 1499 1500 1501 1501 1502 1501 1501 1500 1501 1501 1502 1502 1503 1504 1504 1506
1457 1457 1458 1458 1458 1459 1460 1460 1460 1461 1461 1461 1461 1462 1462 1462 1463 1463 1464 1465 1465 1466 1467 1468 1469 1470 1471 1472 1473 1474 1474 1475 1476 1477 1477 1478 1479 1480 1482 1482 1484 1484 1485 1485 1486 1487 1489 1490 1492 1493 1493 1494 1495 1496 1497 1498 1498 1498 1498 1498 1498 1499 1499 1500 1500 1501 1501 1501 1501
1455 1456 1456 1456 1457 1457 1458 1458 1458 1459 1459 1460 1460 1460 1460 1461 1461 1462 1462 1463 1464 1465 1466 1466 1467 1468 1469 1470 1471 1472 1472 1473 1474 1475 1476 1477 1478 1479 1480 1482 1482 1482 1483 1483 1484 1486 1487 1488 1489 1490 1491 1492 1492 1493 1494 1495 1495 1495 1496 1496 1496 1497 1497 1498 1498 1499 1499 1498 1499
1453 1454 1454 1455 1455 1456 1456 1457 1457 1457 1457 1458 1458 1458 1459 1459 1460 1460 1461 1462 1462 1463 1464 1464 1465 1466 1467 1468 1469 1470 1471 1471 1472 1473 1474 1475 1477 1478 1479 1480 1480 1481 1481 1481 1482 1484 1485 1487 1487 1488 1489 1490 1490 1491 1492 1492 1492 1493 1493 1493 1494 1494 1495 1496 1496 1497 1497 1498 1499
1452 1452 1452 1453 1453 1454 1454 1455 1455 1456 1456 1456 1457 1457 1457 1458 1458 1459 1459 1460 1461 1462 1462 1463 1463 1464 1465 1466 1467 1468 1469 1470 1471 1472 1473 1474 1475 1476 1477 1478 1478 1478 1479 1480 1481 1482 1484 1485 1486 1487 1487 1488 1488 1488 1489 1489 1490 1490 1491 1491 1491 1492 1492 1493 1494 1495 1496 1497 1498
1450 1451 1451 1452 1452 1452 1452 1453 1453 1454 1454 1454 1455 1455 1456 1456 1457 1457 1458 1458 1459 1460 1460 1461 1462 1463 1463 1464 1465 1466 1467 1468 1469 1470 1471 1472 1473 1474 1475 1476 1476 1477 1477 1478 1479 1481 1482 1483 1484 1485 1486 1486 1486 1486 1486 1487 1487 1487 1488 1488 1489 1489 1490 1491 1491 1492 1493 1495 1497
1449 1449 1450 1450 1450 1451 1451 1451 1452 1452 1452 1453 1453 1454 1454 1454 1455 1456 1456 1457 1457 1458 1459 1459 1460 1461 1462 1462 1463 1464 1465 1466 1467 1468 1469 1470 1472 1472 1473 1474 1474 1475 1476 1477 1478 1479 1480 1481 1482 1482 1483 1483 1484 1484 1484 1484 1484 1485 1485 1486 1486 1487 1487 1488 1489 1490 1491 1492 1494
1447 1448 1448 1448 1449 1449 1449 1450 1450 1450 1451 1451 1452 1452 1452 1453 1453 1454 1455 1455 1456 1457 1457 1458 1459 1460 1460 1461 1462 1463 1464 1465 1466 1467 1468 1469 1470 1471 1471 1472 1472 1473 1474 1475 1477 1477 1478 1478 1479 1480 1480 1481 1481 1481 1482 1482 1482 1482 1483 1483 1484 1484 1485 1486 1487 1488 1489 1491 1493
1446 1446 1447 1447 1447 1447 1448 1448 1449 1449 1449 1450 1450 1450 1451 1451 1452 1452 1453 1454 1454 1455 1456 1457 1457 1458 1459 1460 1461 1462 1463 1464 1465 1466 1466 1467 1468 1469 1470 1471 1471 1472 1473 1474 1475 1475 1476 1477 1477 1477 1478 1478 1479 1479 1479 1480 1480 1481 1481 1481 1482 1482 1483 1484 1485 1487 1489 1491 1494
1444 1444 1445 1445 1446 1446 1447 1447 1447 1448 1448 1448 1448 1449 1449 1450 1450 1451 1451 1452 1453 1454 1455 1456 1457 1457 1458 1459 1460 1460 1461 1462 1463 1464 1465 1466 1467 1467 1468 1469 1470 1471 1472 1472 1473 1474 1474 1475 1475 1476 1476 1477 1477 1477 1477 1478 1478 1478 1479 1479 1480 1480 1481 1483 1485 1487 1490 1492 1494
1442 1442 1443 1443 1444 1445 1445 1446 1446 1447 1447 1447 1447 1447 1448 1448 1449 1449 1450 1451 1452 1452 1453 1454 1455 1456 1457 1457 1458 1459 1460 1461 1462 1462 1463 1464 1465 1466 1467 1467 1468 1469 1470 1471 1472 1472 1472 1473 1474 1474 1475 1475 1475 1475 1476 1476 1477 1477 1477 1477 1478 1480 1482 1484 1486 1488 1491 1492 1493
1440 1440 1441 1442 1442 1443 1444 1444 1445 1446 1446 1446 1447 1447 1447 1447 1448 1448 1449 1450 1451 1452 1452 1453 1454 1455 1456 1457 1457 1458 1459 1460 1460 1461 1462 1463 1464 1465 1465 1466 1467 1468 1469 1470 1470 1471 1471 1472 1472 1473 1473 1473 1474 1474 1474 1474 1475 1476 1476 1477 1479 1481 1483 1485 1487 1489 1490 1491 1492
1438 1439 1440 1441 1442 1442 1443 1443 1444 1444 1445 1445 1446 1446 1447 1447 1447 1447 1448 1449 1450 1451 1451 1452 1453 1454 1454 1455 1456 1457 1457 1458 1459 1460 1461 1462 1462 1463 1464 1465 1466 1467 1467 1468 1469 1469 1470 1470 1471 1471 1472 1472 1472 1472 1473 1474 1475 1476 1477 1479 1481 1483 1484 1486 1487 1488 1489 1490 1491
1437 1438 1439 1440 1441 1442 1443 1443 1444 1444 1445 1445 1446 1446 1446 1446 1447 1447 1447 1448 1449 1450 1450 1451 1452 1452 1453 1454 1455 1455 1456 1457 1457 1458 1459 1461 1461 1462 1463 1464 1465 1465 1466 1467 1467 1468 1468 1469 1469 1470 1470 1471 1472 1472 1473 1474 1476 1477 1479 1481 1482 1483 1484 1486 1487 1487 1488 1489 1490
1437 1437 1439 1440 1441 1442 1442 1443 1444 1444 1445 1445 1445 1446 1446 1446 1446 1447 1447 1448 1448 1449 1450 1450 1451 1452 1452 1453 1453 1454 1455 1456 1457 1457 1458 1459 1460 1461 1461 1462 1463 1464 1465 1466 1466 1467 1467 1468 1468 1469 1469 1470 1471 1472 1473 1475 1477 1478 1480 1481 1482 1483 1484 1485 1486 1487 1487 1488 1489
1436 1437 1438 1439 1440 1441 1442 1443 1444 1444 1445 1445 1445 1445 1445 1446 1446 1446 1447 1447 1448 1448 1449 1450 1450 1451 1452 1452 1452 1453 1454 1455 1456 1457 1457 1458 1459 1459 1461 1462 1463 1464 1464 1465 1465 1466 1467 1467 1467 1468 1469 1470 1471 1472 1474 1476 1477 1478 1479 1480 1481 1482 1483 1484 1485 1486 1487 1488 1489
1435 1436 1437 1439 1440 1441 1442 1443 1443 1444 1444 1444 1444 1445 1445 1445 1446 1446 1446 1447 1447 1448 1449 1449 1450 1450 1451 1451 1452 1452 1453 1454 1455 1456 1457 1457 1458 1459 1461 1462 1462 1462 1463 1463 1464 1465 1466 1466 1467 1468 1469 1470 1472 1473 1474 1475 1477 1477 1478 1480 1481 1482 1483 1484 1485 1486 1487 1487 1488
1434 1435 1437 1438 1440 1441 1442 1442 1443 1444 1444 1444 1444 1444 1445 1445 1445 1446 1446 1447 1447 1448 1448 1449 1449 1449 1450 1451 1451 1452 1453 1453 1454 1455 1456 1457 1458 1459 1460 1461 1461 1461 1461 1462 1463 1464 1465 1466 1467 1468 1469 1471 1472 1473 1474 1475 1476 1477 1478 1479 1481 1482 1483 1484 1485 1485 1486 1487 1488
1434 1435 1436 1438 1439 1441 1442 1442 1443 1444 1444 1444 1444 1444 1444 1445 1445 1446 1446 1446 1447 1447 1447 1448 1448 1449 1449 1450 1451 1451 1452 1453 1454 1454 1455 1456 1457 1458 1458 1459 1459 1460 1460 1461 1462 1463 1465 1466 1467 1468 1470 1471 1472 1473 1474 1475 1476 1477 1478 1479 1481 1482 1483 1484 1484 1485 1486 1487 1487
1434 1435 1436 1438 1440 1441 1442 1443 1444 1444 1444 1444 1444 1444 1444 1445 1445 1445 1446 1446 1446 1447 1447 1447 1448 1448 1449 1449 1450 1451 1452 1452 1453 1454 1455 1456 1456 1457 1457 1458 1458 1459 1460 1461 1462 1463 1465 1466 1467 1468 1469 1470 1472 1473 1474 1475 1476 1477 1478 1480 1481 1482 1483 1484 1484 1485 1486 1486 1487
1434 1435 1436 1437 1439 1441 1442 1443 1443 1444 1444 1444 1444 1444 1444 1445 1445 1445 1445 1445 1446 1446 1446 1447 1447 1448 1448 1449 1450 1451 1451 1452 1453 1453 1454 1455 1455 1456 1457 1457 1458 1459 1460 1461 1462 1464 1465 1466 1467 1468 1469 1470 1472 1473 1474 1475 1477 1478 1479 1480 1481 1482 1483 1483 1484 1485 1485 1486 1486
1433 1434 1436 1437 1439 1440 1441 1442 1443 1443 1443 1444 1444 1444 1444 1444 1445 1445 1445 1445 1445 1445 1446 1446 1447 1447 1448 1448 1449 1450 1451 1452 1452 1453 1454 1454 1455 1456 1457 1457 1458 1459 1461 1462 1463 1464 1465 1467 1467 1469 1470 1471 1472 1473 1475 1476 1477 1478 1479 1480 1481 1482 1482 1483 1483 1484 1484 1485 1485
1433 1434 1435 1437 1439 1440 1442 1442 1443 1443 1444 1444 1444 1444 1444 1444 1444 1444 1444 1445 1445 1445 1445 1446 1446 1447 1447 1448 1449 1450 1451 1451 1452 1453 1453 1454 1455 1456 1457 1458 1459 1460 1461 1462 1463 1464 1466 1467 1468 1469 1471 1472 1473 1474 1476 1477 1477 1478 1479 1480 1481 1482 1482 1482 1482 1483 1483 1483 1483
1433 1434 1436 1438 1440 1441 1442 1443 1443 1443 1443 1443 1444 1444 1444 1444 1444 1444 1444 1444 1444 1445 1445 1446 1446 1447 1447 1448 1449 1449 1450 1451 1452 1452 1453 1454 1455 1456 1457 1458 1459 1460 1461 1462 1463 1465 1466 1467 1469 1470 1472 1473 1474 1475 1476 1477 1478 1478 1479 1480 1480 1481 1481 1481 1481 1481 1482 1482 1482
1434 1436 1437 1439 1440 1441 1442 1442 1442 1443 1443 1443 1443 1443 1443 1443 1443 1444 1444 1444 1444 1444 1445 1445 1446 1447 1447 1448 1448 1449 1450 1451 1452 1452 1453 1454 1455 1457 1457 1458 1459 1460 1462 1462 1464 1465 1467 1468 1469 1471 1472 1473 1474 1475 1476 1477 1477 1478 1478 1479 1479 1480 1480 1480 1480 1480 1480 1480 1481
1435 1436 1437 1438 1439 1440 1441 1441 1442 1442 1443 1443 1443 1443 1443 1443 1443 1443 1444 1444 1444 1444 1445 1445 1446 1446 1447 1447 1448 1449 1450 1451 1452 1453 1454 1455 1456 1457 1457 1459 1460 1461 1462 1463 1465 1466 1467 1469 1470 1472 1473 1474 1475 1475 1476 1476 1477 1477 1478 1478 1478 1478 1479 1479 1479 1479 1479 1479 1479
1435 1436 1437 1437 1438 1439 1440 1441 1442 1442 1442 1443 1443 1443 1443 1443 1443 1443 1443 1444 1444 1444 1445 1445 1445 1446 1447 1447 1448 1449 1450 1451 1452 1453 1454 1455 1456 1457 1458 1459 1460 1461 1463 1464 1466 1467 1468 1470 1471 1472 1473 1474 1474 1475 1475 1476 1476 1477 1477 1477 1477 1477 1478 1478 1478 1478 1478 1478 1478
1435 1436 1437 1437 1438 1439 1440 1441 1441 1442 1442 1442 1442 1442 1443 1443 1443 1443 1443 1443 1444 1444 1444 1445 1445 1446 1447 1448 1449 1450 1451 1452 1452 1453 1454 1455 1456 1457 1458 1460 1461 1462 1464 1465 1467 1468 1469 1470 1471 1472 1473 1473 1474 1474 1475 1475 1476 1476 1476 1477 1477 1477 1477 1477 1477 1477 1477 1477 1477
1435 1436 1437 1437 1438 1439 1439 1440 1441 1441 1441 1441 1441 1441 1442 1442 1442 1442 1443 1443 1443 1444 1444 1445 1446 1447 1447 1448 1449 1450 1451 1452 1453 1453 1455 1456 1457 1458 1459 1461 1462 1463 1465 1466 1467 1469 1470 1471 1471 1472 1472 1473 1473 1474 1474 1475 1475 1475 1476 1476 1476 1476 1476 1476 1476 1476 1476 1476 1476
1435 1436 1437 1437 1438 1438 1438 1439 1439 1439 1440 1440 1440 1440 1441 1441 1442 1442 1443 1443 1444 1444 1445 1446 1447 1447 1448 1449 1450 1450 1451 1452 1453 1454 1455 1456 1457 1459 1460 1462 1463 1464 1466 1467 1468 1469 1470 1471 1471 1472 1472 1472 1473 1473 1474 1474 1474 1475 1475 1475 1475 1475 1475 1475 1475 1475 1475 1475 1475
1435 1435 1436 1437 1437 1437 1437 1438 1438 1439 1439 1440 1440 1441 1441 1441 1442 1442 1443 1444 1444 1445 1446 1447 1447 1448 1449 1450 1450 1451 1452 1452 1454 1455 1456 1457 1458 1460 1461 1462 1464 1465 1466 1467 1468 1469 1470 1470 1471 1471 1472 1472 1472 1473 1473 1473 1473 1474 1474 1474 1474 1474 1474 1474 1474 1474 1474 1474 1474
1434 1435 1435 1436 1436 1437 1437 1438 1438 1439 1439 1440 1440 1441 1441 1442 1442 1443 1444 1444 1445 1446 1446 1447 1448 1448 1449 1450 1451 1452 1452 1453 1454 1456 1457 1458 1460 1461 1462 1463 1464 1466 1467 1467 1468 1469 1469 1470 1470 1471 1471 1472 1472 1472 1472 1472 1472 1473 1473 1473 1473 1473 1473 1473 1473 1473 1473 1473 1473
1434 1435 1435 1436 1436 1437 1437 1438 1438 1439 1439 1440 1441 1441 1442 1442 1443 1444 1444 1445 1446 1446 1447 1447 1448 1448 1449 1450 1451 1452 1453 1455 1456 1457 1458 1460 1461 1462 1463 1464 1465 1466 1467 1467 1468 1468 1469 1469 1470 1470 1471 1471 1471 1471 1472 1472 1472 1472 1472 1472 1472 1472 1472 1472 1472 1472 1472 1472 1472
1434 1435 1436 1436 1437 1437 1438 1438 1438 1439 1440 1440 1441 1442 1442 1443 1443 1444 1445 1445 1446 1446 1447 1447 1448 1449 1450 1451 1452 1453 1455 1456 1457 1458 1460 1461 1462 1462 1463 1464 1465 1466 1467 1467 1467 1468 1468 1469 1469 1470 1470 1470 1470 1470 1471 1471 1471 1471 1472 1472 1472 1472 1472 1472 1472 1471 1471 1471 1471
1435 1436 1436 1437 1437 1438 1438 1438 1439 1439 1440 1441 1441 1442 1442 1443 1444 1445 1445 1446 1446 1447 1447 1447 1448 1449 1451 1452 1453 1454 1456 1457 1458 1460 1461 1462 1462 1463 1464 1464 1465 1466 1466 1467 1467 1467 1468 1468 1469 1469 1469 1469 1469 1470 1470 1470 1471 1471 1471 1471 1471 1471 1471 1471 1470 1470 1470 1470 1470
1436 1437 1437 1438 1438 1438 1439 1439 1439 1440 1441 1441 1442 1442 1443 1444 1444 1445 1445 1446 1447 1447 1447 1448 1449 1450 1452 1453 1454 1455 1457 1458 1460 1461 1462 1462 1463 1464 1464 1465 1465 1466 1466 1467 1467 1467 1467 1468 1468 1468 1468 1468 1469 1469 1470 1470 1470 1470 1470 1470 1470 1470 1470 1470 1470 1470 1469 1469 1469
1437 1437 1438 1438 1439 1439 1439 1440 1440 1441 1441 1442 1442 1443 1443 1444 1445 1445 1446 1446 1447 1447 1448 1449 1450 1451 1452 1454 1455 1457 1458 1459 1460 1462 1462 1463 1464 1464 1465 1465 1465 1466 1466 1466 1467 1467 1467 1467 1467 1467 1468 1468 1469 1469 1469 1470 1470 1469 1469 1469 1469 1469 1469 1469 1469 1469 1469 1469 1468